User: anonymous   Login
Location: Bieujac
(44.5398°N, 0.1549°W)
Time: 11:26:12
(UTC+00:00)
Language:

CZ-4C R/B - Orbit

View from above orbital plane
View from above orbital plane
View from above satellite
View from above satellite

Ground track
Ground track

The orbit data is extracted from the following two-line orbital elements,

1 36416U 10009D   20018.19706122 -.00000056 +00000-0 +25643-4 0  9995
2 36416 063.4258 247.4912 0480119 355.2371 004.4179 13.69559997493631
Epoch (UTC): 18 January 2020 04:43:46
Eccentricity: 0.0480119
inclination: 63.4258°
perigee height: 647 km
apogee height: 1355 km
right ascension of ascending node: 247.4912°
argument of perigee: 355.2371°
revolutions per day: 13.69559997
mean anomaly at epoch: 4.4179°
orbit number at epoch: 49363

The dashed part of the orbit path shows where the satellite is in the earth's shadow,  

DLR